,Coso Junction,Coso Junction
,PM10_1HR,PM10_1HR
,UG/M3,UG/M3
Date,Value,Null Code
01-Oct-2023 00:00,6.3,
01-Oct-2023 01:00,6.3,
01-Oct-2023 02:00,10,
01-Oct-2023 03:00,8.3,
01-Oct-2023 04:00,8.9,
01-Oct-2023 05:00,7.2,
01-Oct-2023 06:00,8.1,
01-Oct-2023 07:00,6.4,
01-Oct-2023 08:00,11.3,
01-Oct-2023 09:00,10.4,
01-Oct-2023 10:00,7.8,
01-Oct-2023 11:00,18.6,
01-Oct-2023 12:00,9.3,
01-Oct-2023 13:00,2.2,
01-Oct-2023 14:00,11.7,
01-Oct-2023 15:00,10.4,
01-Oct-2023 16:00,13.9,
01-Oct-2023 17:00,14.3,
01-Oct-2023 18:00,5.8,
01-Oct-2023 19:00,6.4,
01-Oct-2023 20:00,7.8,
01-Oct-2023 21:00,9.2,
01-Oct-2023 22:00,6.1,
01-Oct-2023 23:00,4.8,
02-Oct-2023 00:00,4.5,
02-Oct-2023 01:00,4.9,
02-Oct-2023 02:00,2.4,
02-Oct-2023 03:00,3.5,
02-Oct-2023 04:00,4.3,
02-Oct-2023 05:00,5,
02-Oct-2023 06:00,6,
02-Oct-2023 07:00,4.5,
02-Oct-2023 08:00,2.9,
02-Oct-2023 09:00,1.6,
02-Oct-2023 10:00,3.2,
02-Oct-2023 11:00,4.8,
02-Oct-2023 12:00,0.7,
02-Oct-2023 13:00,5.7,
02-Oct-2023 14:00,4.5,
02-Oct-2023 15:00,3.2,
02-Oct-2023 16:00,7.2,
02-Oct-2023 17:00,6.3,
02-Oct-2023 18:00,6.6,
02-Oct-2023 19:00,9.8,
02-Oct-2023 20:00,8.9,
02-Oct-2023 21:00,8,
02-Oct-2023 22:00,6.1,
02-Oct-2023 23:00,6.5,
03-Oct-2023 00:00,6.7,
03-Oct-2023 01:00,5.4,
03-Oct-2023 02:00,6.4,
03-Oct-2023 03:00,6,
03-Oct-2023 04:00,6.6,
03-Oct-2023 05:00,7,
03-Oct-2023 06:00,5.8,
03-Oct-2023 07:00,4.2,
03-Oct-2023 08:00,8.1,
03-Oct-2023 09:00,8.7,
03-Oct-2023 10:00,8.2,
03-Oct-2023 11:00,5.2,
03-Oct-2023 12:00,4.5,
03-Oct-2023 13:00,3.6,
03-Oct-2023 14:00,5.2,
03-Oct-2023 15:00,6,
03-Oct-2023 16:00,6.9,
03-Oct-2023 17:00,17.9,
03-Oct-2023 18:00,15.2,
03-Oct-2023 19:00,9.6,
03-Oct-2023 20:00,22.3,
03-Oct-2023 21:00,10.4,
03-Oct-2023 22:00,8.1,
03-Oct-2023 23:00,8.4,
04-Oct-2023 00:00,7.9,
04-Oct-2023 01:00,5.4,
04-Oct-2023 02:00,6.4,
04-Oct-2023 03:00,5.1,
04-Oct-2023 04:00,5.8,
04-Oct-2023 05:00,5.7,
04-Oct-2023 06:00,5.5,
04-Oct-2023 07:00,5.9,
04-Oct-2023 08:00,11.6,
04-Oct-2023 09:00,8.9,
04-Oct-2023 10:00,3.3,
04-Oct-2023 11:00,4.3,
04-Oct-2023 12:00,4.3,
04-Oct-2023 13:00,5.6,
04-Oct-2023 14:00,5.1,
04-Oct-2023 15:00,4.8,
04-Oct-2023 16:00,7.3,
04-Oct-2023 17:00,8.3,
04-Oct-2023 18:00,8.3,
04-Oct-2023 19:00,8.2,
04-Oct-2023 20:00,9.4,
04-Oct-2023 21:00,6.9,
04-Oct-2023 22:00,5.6,
04-Oct-2023 23:00,5.4,
05-Oct-2023 00:00,5.6,
05-Oct-2023 01:00,8.2,
05-Oct-2023 02:00,5.4,
05-Oct-2023 03:00,5.6,
05-Oct-2023 04:00,6.6,
05-Oct-2023 05:00,7.2,
05-Oct-2023 06:00,8,
05-Oct-2023 07:00,8.9,
05-Oct-2023 08:00,10.6,
05-Oct-2023 09:00,13.8,
05-Oct-2023 10:00,12.8,
05-Oct-2023 11:00,10.5,
05-Oct-2023 12:00,4.6,
05-Oct-2023 13:00,3.6,
05-Oct-2023 14:00,5.5,
05-Oct-2023 15:00,5.8,
05-Oct-2023 16:00,7,
05-Oct-2023 17:00,6.3,
05-Oct-2023 18:00,8.5,
05-Oct-2023 19:00,6.4,
05-Oct-2023 20:00,7.5,
05-Oct-2023 21:00,7.3,
05-Oct-2023 22:00,7.1,
05-Oct-2023 23:00,8.3,
06-Oct-2023 00:00,8.4,
06-Oct-2023 01:00,6.2,
06-Oct-2023 02:00,7.1,
06-Oct-2023 03:00,7.4,
06-Oct-2023 04:00,7.3,
06-Oct-2023 05:00,8.5,
06-Oct-2023 06:00,8.2,
06-Oct-2023 07:00,11,
06-Oct-2023 08:00,11.8,
06-Oct-2023 09:00,8.9,
06-Oct-2023 10:00,8.9,
06-Oct-2023 11:00,5.7,
06-Oct-2023 12:00,4.3,
06-Oct-2023 13:00,3.8,
06-Oct-2023 14:00,3.5,
06-Oct-2023 15:00,4.9,
06-Oct-2023 16:00,7,
06-Oct-2023 17:00,7.6,
06-Oct-2023 18:00,6.9,
06-Oct-2023 19:00,5.3,
06-Oct-2023 20:00,6.7,
06-Oct-2023 21:00,8.4,
06-Oct-2023 22:00,9.7,
06-Oct-2023 23:00,7.6,
07-Oct-2023 00:00,5.5,
07-Oct-2023 01:00,4.6,
07-Oct-2023 02:00,5.2,
07-Oct-2023 03:00,4.3,
07-Oct-2023 04:00,5.1,
07-Oct-2023 05:00,6.6,
07-Oct-2023 06:00,6.4,
07-Oct-2023 07:00,8.4,
07-Oct-2023 08:00,,DA
07-Oct-2023 09:00,5.9,
07-Oct-2023 10:00,6.4,
07-Oct-2023 11:00,1.9,
07-Oct-2023 12:00,1.6,
07-Oct-2023 13:00,6.2,
07-Oct-2023 14:00,7.7,
07-Oct-2023 15:00,5.6,
07-Oct-2023 16:00,9.3,
07-Oct-2023 17:00,7.5,
07-Oct-2023 18:00,6.8,
07-Oct-2023 19:00,6.7,
07-Oct-2023 20:00,8.3,
07-Oct-2023 21:00,8.4,
07-Oct-2023 22:00,7.3,
07-Oct-2023 23:00,8.7,
08-Oct-2023 00:00,7.8,
08-Oct-2023 01:00,7.2,
08-Oct-2023 02:00,6.8,
08-Oct-2023 03:00,8.3,
08-Oct-2023 04:00,5.9,
08-Oct-2023 05:00,7.4,
08-Oct-2023 06:00,5.4,
08-Oct-2023 07:00,3.6,
08-Oct-2023 08:00,8.7,
08-Oct-2023 09:00,7.3,
08-Oct-2023 10:00,6.9,
08-Oct-2023 11:00,4,
08-Oct-2023 12:00,8.9,
08-Oct-2023 13:00,10.6,
08-Oct-2023 14:00,10,
08-Oct-2023 15:00,10.9,
08-Oct-2023 16:00,16.5,
08-Oct-2023 17:00,12.9,
08-Oct-2023 18:00,9.9,
08-Oct-2023 19:00,10.4,
08-Oct-2023 20:00,10.3,
08-Oct-2023 21:00,10.5,
08-Oct-2023 22:00,9.7,
08-Oct-2023 23:00,11,
09-Oct-2023 00:00,10.5,
09-Oct-2023 01:00,9.1,
09-Oct-2023 02:00,9.6,
09-Oct-2023 03:00,11.9,
09-Oct-2023 04:00,10.2,
09-Oct-2023 05:00,10.8,
09-Oct-2023 06:00,12.7,
09-Oct-2023 07:00,5.1,
09-Oct-2023 08:00,7.3,
09-Oct-2023 09:00,7.8,
09-Oct-2023 10:00,12,
09-Oct-2023 11:00,18,
09-Oct-2023 12:00,13.3,
09-Oct-2023 13:00,10,
09-Oct-2023 14:00,6.3,
09-Oct-2023 15:00,24.9,
09-Oct-2023 16:00,48.7,
09-Oct-2023 17:00,12.5,
09-Oct-2023 18:00,6.6,
09-Oct-2023 19:00,6.4,
09-Oct-2023 20:00,4.6,
09-Oct-2023 21:00,5.2,
09-Oct-2023 22:00,4.5,
09-Oct-2023 23:00,3.4,
10-Oct-2023 00:00,6.3,
10-Oct-2023 01:00,5.7,
10-Oct-2023 02:00,10,
10-Oct-2023 03:00,11,
10-Oct-2023 04:00,9.6,
10-Oct-2023 05:00,15.6,
10-Oct-2023 06:00,12.2,
10-Oct-2023 07:00,5.1,
10-Oct-2023 08:00,7.3,
10-Oct-2023 09:00,,AX
10-Oct-2023 10:00,,AX
10-Oct-2023 11:00,,AX
10-Oct-2023 12:00,,AX
10-Oct-2023 13:00,16.1,
10-Oct-2023 14:00,13.9,
10-Oct-2023 15:00,13,
10-Oct-2023 16:00,13.2,
10-Oct-2023 17:00,18.3,
10-Oct-2023 18:00,28.5,
10-Oct-2023 19:00,29.2,
10-Oct-2023 20:00,29.3,
10-Oct-2023 21:00,30.1,
10-Oct-2023 22:00,25.9,
10-Oct-2023 23:00,19,
11-Oct-2023 00:00,22.9,
11-Oct-2023 01:00,25.6,
11-Oct-2023 02:00,20.5,
11-Oct-2023 03:00,19.2,
11-Oct-2023 04:00,20.3,
11-Oct-2023 05:00,23.6,
11-Oct-2023 06:00,21.1,
11-Oct-2023 07:00,13.8,
11-Oct-2023 08:00,16.5,
11-Oct-2023 09:00,13.6,
11-Oct-2023 10:00,15.5,
11-Oct-2023 11:00,10.4,
11-Oct-2023 12:00,6.9,
11-Oct-2023 13:00,18.9,
11-Oct-2023 14:00,26.8,
11-Oct-2023 15:00,21.4,
11-Oct-2023 16:00,22.4,
11-Oct-2023 17:00,16.3,
11-Oct-2023 18:00,20.6,
11-Oct-2023 19:00,14.5,
11-Oct-2023 20:00,34.3,
11-Oct-2023 21:00,64.7,
11-Oct-2023 22:00,50.9,
11-Oct-2023 23:00,33.6,
12-Oct-2023 00:00,24.5,
12-Oct-2023 01:00,15.8,
12-Oct-2023 02:00,12.6,
12-Oct-2023 03:00,12.7,
12-Oct-2023 04:00,12.5,
12-Oct-2023 05:00,10.2,
12-Oct-2023 06:00,7.9,
12-Oct-2023 07:00,4.8,
12-Oct-2023 08:00,11.8,
12-Oct-2023 09:00,17.3,
12-Oct-2023 10:00,7.5,
12-Oct-2023 11:00,14.1,
12-Oct-2023 12:00,5.5,
12-Oct-2023 13:00,4.4,
12-Oct-2023 14:00,4.4,
12-Oct-2023 15:00,4.6,
12-Oct-2023 16:00,7.8,
12-Oct-2023 17:00,4.5,
12-Oct-2023 18:00,34.2,
12-Oct-2023 19:00,9.6,
12-Oct-2023 20:00,8.4,
12-Oct-2023 21:00,18.4,
12-Oct-2023 22:00,11.5,
12-Oct-2023 23:00,11.4,
13-Oct-2023 00:00,7.1,
13-Oct-2023 01:00,6,
13-Oct-2023 02:00,6.9,
13-Oct-2023 03:00,7.5,
13-Oct-2023 04:00,9.8,
13-Oct-2023 05:00,17,
13-Oct-2023 06:00,20.2,
13-Oct-2023 07:00,8.3,
13-Oct-2023 08:00,1.7,
13-Oct-2023 09:00,5.5,
13-Oct-2023 10:00,5.9,
13-Oct-2023 11:00,10,
13-Oct-2023 12:00,5.4,
13-Oct-2023 13:00,5.5,
13-Oct-2023 14:00,7.9,
13-Oct-2023 15:00,6.6,
13-Oct-2023 16:00,10.6,
13-Oct-2023 17:00,6.9,
13-Oct-2023 18:00,10.2,
13-Oct-2023 19:00,11.9,
13-Oct-2023 20:00,12.2,
13-Oct-2023 21:00,12.7,
13-Oct-2023 22:00,9.3,
13-Oct-2023 23:00,8.2,
14-Oct-2023 00:00,7.8,
14-Oct-2023 01:00,8.8,
14-Oct-2023 02:00,8,
14-Oct-2023 03:00,7.6,
14-Oct-2023 04:00,9.7,
14-Oct-2023 05:00,8.4,
14-Oct-2023 06:00,11,
14-Oct-2023 07:00,6.1,
14-Oct-2023 08:00,6.8,
14-Oct-2023 09:00,5.1,
14-Oct-2023 10:00,9.5,
14-Oct-2023 11:00,8,
14-Oct-2023 12:00,9.6,
14-Oct-2023 13:00,9.5,
14-Oct-2023 14:00,11.2,
14-Oct-2023 15:00,12.8,
14-Oct-2023 16:00,14.9,
14-Oct-2023 17:00,9.5,
14-Oct-2023 18:00,12,
14-Oct-2023 19:00,13.7,
14-Oct-2023 20:00,12.9,
14-Oct-2023 21:00,16.4,
14-Oct-2023 22:00,12.4,
14-Oct-2023 23:00,11.9,
15-Oct-2023 00:00,11.3,
15-Oct-2023 01:00,10.4,
15-Oct-2023 02:00,11.1,
15-Oct-2023 03:00,11.4,
15-Oct-2023 04:00,11.6,
15-Oct-2023 05:00,11.5,
15-Oct-2023 06:00,10.1,
15-Oct-2023 07:00,9.2,
15-Oct-2023 08:00,10.6,
15-Oct-2023 09:00,10.8,
15-Oct-2023 10:00,13.2,
15-Oct-2023 11:00,9.2,
15-Oct-2023 12:00,11.1,
15-Oct-2023 13:00,13.5,
15-Oct-2023 14:00,17.2,
15-Oct-2023 15:00,16.2,
15-Oct-2023 16:00,19.6,
15-Oct-2023 17:00,19.2,
15-Oct-2023 18:00,17.1,
15-Oct-2023 19:00,13.6,
15-Oct-2023 20:00,12.4,
15-Oct-2023 21:00,9.9,
15-Oct-2023 22:00,10.7,
15-Oct-2023 23:00,11.7,
16-Oct-2023 00:00,10.1,
16-Oct-2023 01:00,8.9,
16-Oct-2023 02:00,10.8,
16-Oct-2023 03:00,8.2,
16-Oct-2023 04:00,6.4,
16-Oct-2023 05:00,12.5,
16-Oct-2023 06:00,10.2,
16-Oct-2023 07:00,5.5,
16-Oct-2023 08:00,9.5,
16-Oct-2023 09:00,5.8,
16-Oct-2023 10:00,8.6,
16-Oct-2023 11:00,9.3,
16-Oct-2023 12:00,20.2,
16-Oct-2023 13:00,8.2,
16-Oct-2023 14:00,11.7,
16-Oct-2023 15:00,18,
16-Oct-2023 16:00,18.2,
16-Oct-2023 17:00,12.8,
16-Oct-2023 18:00,11.3,
16-Oct-2023 19:00,11.4,
16-Oct-2023 20:00,13.7,
16-Oct-2023 21:00,34.9,
16-Oct-2023 22:00,16.7,
16-Oct-2023 23:00,11.7,
17-Oct-2023 00:00,23.2,
17-Oct-2023 01:00,11.1,
17-Oct-2023 02:00,13.9,
17-Oct-2023 03:00,9.5,
17-Oct-2023 04:00,10.7,
17-Oct-2023 05:00,10.7,
17-Oct-2023 06:00,12.4,
17-Oct-2023 07:00,13.5,
17-Oct-2023 08:00,15.3,
17-Oct-2023 09:00,13.8,
17-Oct-2023 10:00,9.9,
17-Oct-2023 11:00,11.3,
17-Oct-2023 12:00,8.5,
17-Oct-2023 13:00,7.9,
17-Oct-2023 14:00,9.2,
17-Oct-2023 15:00,12.4,
17-Oct-2023 16:00,21.9,
17-Oct-2023 17:00,18.6,
17-Oct-2023 18:00,10.3,
17-Oct-2023 19:00,22.2,
17-Oct-2023 20:00,17,
17-Oct-2023 21:00,13.1,
17-Oct-2023 22:00,24.2,
17-Oct-2023 23:00,8.8,
18-Oct-2023 00:00,11.1,
18-Oct-2023 01:00,10.4,
18-Oct-2023 02:00,12,
18-Oct-2023 03:00,11.1,
18-Oct-2023 04:00,13.4,
18-Oct-2023 05:00,10.4,
18-Oct-2023 06:00,11.4,
18-Oct-2023 07:00,15.5,
18-Oct-2023 08:00,20.9,
18-Oct-2023 09:00,20,
18-Oct-2023 10:00,15.3,
18-Oct-2023 11:00,13.6,
18-Oct-2023 12:00,13.9,
18-Oct-2023 13:00,9.7,
18-Oct-2023 14:00,10.7,
18-Oct-2023 15:00,10.2,
18-Oct-2023 16:00,16.8,
18-Oct-2023 17:00,13.8,
18-Oct-2023 18:00,9.2,
18-Oct-2023 19:00,12.1,
18-Oct-2023 20:00,12.5,
18-Oct-2023 21:00,11.9,
18-Oct-2023 22:00,9.9,
18-Oct-2023 23:00,9.9,
19-Oct-2023 00:00,35.7,
19-Oct-2023 01:00,6,
19-Oct-2023 02:00,7.5,
19-Oct-2023 03:00,10.2,
19-Oct-2023 04:00,10.9,
19-Oct-2023 05:00,9.6,
19-Oct-2023 06:00,13,
19-Oct-2023 07:00,13.2,
19-Oct-2023 08:00,13.5,
19-Oct-2023 09:00,9,
19-Oct-2023 10:00,8.9,
19-Oct-2023 11:00,9.6,
19-Oct-2023 12:00,9.5,
19-Oct-2023 13:00,8.8,
19-Oct-2023 14:00,13.9,
19-Oct-2023 15:00,17.1,
19-Oct-2023 16:00,18.4,
19-Oct-2023 17:00,14.8,
19-Oct-2023 18:00,9.6,
19-Oct-2023 19:00,12,
19-Oct-2023 20:00,14.5,
19-Oct-2023 21:00,12.7,
19-Oct-2023 22:00,12.7,
19-Oct-2023 23:00,13.3,
20-Oct-2023 00:00,11.9,
20-Oct-2023 01:00,12.1,
20-Oct-2023 02:00,11,
20-Oct-2023 03:00,14.5,
20-Oct-2023 04:00,13.8,
20-Oct-2023 05:00,9.2,
20-Oct-2023 06:00,9.1,
20-Oct-2023 07:00,11.6,
20-Oct-2023 08:00,12.8,
20-Oct-2023 09:00,14.4,
20-Oct-2023 10:00,11.7,
20-Oct-2023 11:00,9.3,
20-Oct-2023 12:00,10.8,
20-Oct-2023 13:00,8.7,
20-Oct-2023 14:00,16.9,
20-Oct-2023 15:00,9.5,
20-Oct-2023 16:00,13.4,
20-Oct-2023 17:00,10.3,
20-Oct-2023 18:00,9,
20-Oct-2023 19:00,14.1,
20-Oct-2023 20:00,13,
20-Oct-2023 21:00,13.7,
20-Oct-2023 22:00,10.7,
20-Oct-2023 23:00,9.6,
21-Oct-2023 00:00,9.7,
21-Oct-2023 01:00,9.4,
21-Oct-2023 02:00,10,
21-Oct-2023 03:00,11.9,
21-Oct-2023 04:00,8.2,
21-Oct-2023 05:00,9.7,
21-Oct-2023 06:00,9.6,
21-Oct-2023 07:00,10,
21-Oct-2023 08:00,14.2,
21-Oct-2023 09:00,10.1,
21-Oct-2023 10:00,6.1,
21-Oct-2023 11:00,4.8,
21-Oct-2023 12:00,10,
21-Oct-2023 13:00,13.5,
21-Oct-2023 14:00,16.9,
21-Oct-2023 15:00,17,
21-Oct-2023 16:00,21.1,
21-Oct-2023 17:00,21.9,
21-Oct-2023 18:00,19.3,
21-Oct-2023 19:00,16.5,
21-Oct-2023 20:00,19.7,
21-Oct-2023 21:00,21,
21-Oct-2023 22:00,23.2,
21-Oct-2023 23:00,19.8,
22-Oct-2023 00:00,25.8,
22-Oct-2023 01:00,19.6,
22-Oct-2023 02:00,20.2,
22-Oct-2023 03:00,22,
22-Oct-2023 04:00,20.8,
22-Oct-2023 05:00,17.7,
22-Oct-2023 06:00,20.3,
22-Oct-2023 07:00,15.9,
22-Oct-2023 08:00,22.4,
22-Oct-2023 09:00,32.5,
22-Oct-2023 10:00,31.9,
22-Oct-2023 11:00,30.9,
22-Oct-2023 12:00,31.7,
22-Oct-2023 13:00,31.6,
22-Oct-2023 14:00,25.4,
22-Oct-2023 15:00,6.8,
22-Oct-2023 16:00,16.2,
22-Oct-2023 17:00,19.9,
22-Oct-2023 18:00,38.1,
22-Oct-2023 19:00,31,
22-Oct-2023 20:00,23.4,
22-Oct-2023 21:00,26.7,
22-Oct-2023 22:00,24.6,
22-Oct-2023 23:00,17.7,
23-Oct-2023 00:00,11,
23-Oct-2023 01:00,16.8,
23-Oct-2023 02:00,17.5,
23-Oct-2023 03:00,16.7,
23-Oct-2023 04:00,23.7,
23-Oct-2023 05:00,29,
23-Oct-2023 06:00,15.6,
23-Oct-2023 07:00,13.4,
23-Oct-2023 08:00,35.9,
23-Oct-2023 09:00,78.6,
23-Oct-2023 10:00,73.7,
23-Oct-2023 11:00,32.1,
23-Oct-2023 12:00,23.1,
23-Oct-2023 13:00,15.1,
23-Oct-2023 14:00,17.6,
23-Oct-2023 15:00,14.8,
23-Oct-2023 16:00,12.9,
23-Oct-2023 17:00,15.6,
23-Oct-2023 18:00,12.5,
23-Oct-2023 19:00,12.7,
23-Oct-2023 20:00,11.5,
23-Oct-2023 21:00,10.9,
23-Oct-2023 22:00,11.6,
23-Oct-2023 23:00,10.7,
24-Oct-2023 00:00,9.1,
24-Oct-2023 01:00,9.2,
24-Oct-2023 02:00,7.5,
24-Oct-2023 03:00,9.4,
24-Oct-2023 04:00,13.5,
24-Oct-2023 05:00,12.3,
24-Oct-2023 06:00,10.9,
24-Oct-2023 07:00,8.5,
24-Oct-2023 08:00,11.9,
24-Oct-2023 09:00,9.7,
24-Oct-2023 10:00,17.8,
24-Oct-2023 11:00,15.1,
24-Oct-2023 12:00,9.3,
24-Oct-2023 13:00,18.3,
24-Oct-2023 14:00,17.8,
24-Oct-2023 15:00,17.8,
24-Oct-2023 16:00,17.6,
24-Oct-2023 17:00,13.1,
24-Oct-2023 18:00,15,
24-Oct-2023 19:00,12.5,
24-Oct-2023 20:00,17.2,
24-Oct-2023 21:00,17.7,
24-Oct-2023 22:00,17,
24-Oct-2023 23:00,15.5,
25-Oct-2023 00:00,14.9,
25-Oct-2023 01:00,26.4,
25-Oct-2023 02:00,11.3,
25-Oct-2023 03:00,12.5,
25-Oct-2023 04:00,11.9,
25-Oct-2023 05:00,15.4,
25-Oct-2023 06:00,15.4,
25-Oct-2023 07:00,9.9,
25-Oct-2023 08:00,5.8,
25-Oct-2023 09:00,,BA
25-Oct-2023 10:00,,BA
25-Oct-2023 11:00,,BA
25-Oct-2023 12:00,5.5,
25-Oct-2023 13:00,13.9,
25-Oct-2023 14:00,38.2,
25-Oct-2023 15:00,12.7,
25-Oct-2023 16:00,18.8,
25-Oct-2023 17:00,12.3,
25-Oct-2023 18:00,10.9,
25-Oct-2023 19:00,12.6,
25-Oct-2023 20:00,11.5,
25-Oct-2023 21:00,5.7,
25-Oct-2023 22:00,7.3,
25-Oct-2023 23:00,12.9,
26-Oct-2023 00:00,9.6,
26-Oct-2023 01:00,9.8,
26-Oct-2023 02:00,8.9,
26-Oct-2023 03:00,7.4,
26-Oct-2023 04:00,6.9,
26-Oct-2023 05:00,8.1,
26-Oct-2023 06:00,14.1,
26-Oct-2023 07:00,17.8,
26-Oct-2023 08:00,19,
26-Oct-2023 09:00,12.3,
26-Oct-2023 10:00,10.7,
26-Oct-2023 11:00,17.4,
26-Oct-2023 12:00,14.3,
26-Oct-2023 13:00,16.1,
26-Oct-2023 14:00,17.3,
26-Oct-2023 15:00,16.6,
26-Oct-2023 16:00,15.4,
26-Oct-2023 17:00,16.6,
26-Oct-2023 18:00,17.1,
26-Oct-2023 19:00,17.9,
26-Oct-2023 20:00,16.4,
26-Oct-2023 21:00,15.1,
26-Oct-2023 22:00,16,
26-Oct-2023 23:00,17.9,
27-Oct-2023 00:00,15.2,
27-Oct-2023 01:00,14.3,
27-Oct-2023 02:00,14.2,
27-Oct-2023 03:00,16.9,
27-Oct-2023 04:00,14.2,
27-Oct-2023 05:00,21.3,
27-Oct-2023 06:00,15.9,
27-Oct-2023 07:00,11.7,
27-Oct-2023 08:00,12,
27-Oct-2023 09:00,12.9,
27-Oct-2023 10:00,12.4,
27-Oct-2023 11:00,12.5,
27-Oct-2023 12:00,17,
27-Oct-2023 13:00,17.5,
27-Oct-2023 14:00,30.5,
27-Oct-2023 15:00,27.4,
27-Oct-2023 16:00,19.8,
27-Oct-2023 17:00,20.4,
27-Oct-2023 18:00,17.9,
27-Oct-2023 19:00,18.5,
27-Oct-2023 20:00,19.5,
27-Oct-2023 21:00,18,
27-Oct-2023 22:00,25.9,
27-Oct-2023 23:00,15.2,
28-Oct-2023 00:00,11.2,
28-Oct-2023 01:00,19.3,
28-Oct-2023 02:00,11.4,
28-Oct-2023 03:00,12.7,
28-Oct-2023 04:00,15,
28-Oct-2023 05:00,15.6,
28-Oct-2023 06:00,11.8,
28-Oct-2023 07:00,14.8,
28-Oct-2023 08:00,11.2,
28-Oct-2023 09:00,12,
28-Oct-2023 10:00,11.7,
28-Oct-2023 11:00,9.8,
28-Oct-2023 12:00,15.6,
28-Oct-2023 13:00,18.4,
28-Oct-2023 14:00,20.8,
28-Oct-2023 15:00,11.5,
28-Oct-2023 16:00,12.2,
28-Oct-2023 17:00,23.4,
28-Oct-2023 18:00,44.6,
28-Oct-2023 19:00,88.8,
28-Oct-2023 20:00,140.4,
28-Oct-2023 21:00,98.9,
28-Oct-2023 22:00,86.3,
28-Oct-2023 23:00,55.6,
29-Oct-2023 00:00,36.9,
29-Oct-2023 01:00,32.8,
29-Oct-2023 02:00,28.4,
29-Oct-2023 03:00,31.7,
29-Oct-2023 04:00,19.2,
29-Oct-2023 05:00,14.8,
29-Oct-2023 06:00,10.4,
29-Oct-2023 07:00,15.7,
29-Oct-2023 08:00,8.5,
29-Oct-2023 09:00,9.9,
29-Oct-2023 10:00,8.9,
29-Oct-2023 11:00,6.1,
29-Oct-2023 12:00,3.4,
29-Oct-2023 13:00,4.8,
29-Oct-2023 14:00,9.6,
29-Oct-2023 15:00,17.2,
29-Oct-2023 16:00,19.3,
29-Oct-2023 17:00,25,
29-Oct-2023 18:00,22.8,
29-Oct-2023 19:00,10.8,
29-Oct-2023 20:00,9.2,
29-Oct-2023 21:00,11.4,
29-Oct-2023 22:00,11.5,
29-Oct-2023 23:00,5.5,
30-Oct-2023 00:00,6.3,
30-Oct-2023 01:00,4.1,
30-Oct-2023 02:00,4.4,
30-Oct-2023 03:00,6.8,
30-Oct-2023 04:00,6.6,
30-Oct-2023 05:00,5.4,
30-Oct-2023 06:00,7.8,
30-Oct-2023 07:00,7.6,
30-Oct-2023 08:00,6.6,
30-Oct-2023 09:00,3.5,
30-Oct-2023 10:00,1.9,
30-Oct-2023 11:00,3.2,
30-Oct-2023 12:00,3.2,
30-Oct-2023 13:00,4.2,
30-Oct-2023 14:00,4,
30-Oct-2023 15:00,11.3,
30-Oct-2023 16:00,26.3,
30-Oct-2023 17:00,17.1,
30-Oct-2023 18:00,15.5,
30-Oct-2023 19:00,9.2,
30-Oct-2023 20:00,12.7,
30-Oct-2023 21:00,8.5,
30-Oct-2023 22:00,7.8,
30-Oct-2023 23:00,27.6,
31-Oct-2023 00:00,23.1,
31-Oct-2023 01:00,10,
31-Oct-2023 02:00,8.6,
31-Oct-2023 03:00,6.7,
31-Oct-2023 04:00,8.5,
31-Oct-2023 05:00,6.3,
31-Oct-2023 06:00,9.1,
31-Oct-2023 07:00,8.5,
31-Oct-2023 08:00,5.4,
31-Oct-2023 09:00,1.4,
31-Oct-2023 10:00,6,
31-Oct-2023 11:00,3,
31-Oct-2023 12:00,4.2,
31-Oct-2023 13:00,3.8,
31-Oct-2023 14:00,10.7,
31-Oct-2023 15:00,9.2,
31-Oct-2023 16:00,12.7,
31-Oct-2023 17:00,15,
31-Oct-2023 18:00,15.8,
31-Oct-2023 19:00,10.7,
31-Oct-2023 20:00,13.1,
31-Oct-2023 21:00,11.6,
31-Oct-2023 22:00,7.7,
31-Oct-2023 23:00,8.4,
